Time,TemperatureF,DewpointF,PressureIn,WindDirection,WindDirectionDegrees,WindSpeedMPH,WindSpeedGustMPH,Humidity,HourlyPrecipIn,Conditions,Clouds,dailyrainin,SoftwareType,DateUTC
2013-02-24 00:01:00,13.6,5.4,29.93,SW,216,0.0,0.0,69,0.00,,---,0.00,VWS V14.00,2013-02-24 06:01:00,
2013-02-24 00:06:00,13.3,5.0,29.93,SW,217,0.0,0.0,69,0.00,,---,0.00,VWS V14.00,2013-02-24 06:06:00,
2013-02-24 00:11:00,12.9,4.7,29.93,SW,217,0.0,0.0,69,0.00,,---,0.00,VWS V14.00,2013-02-24 06:11:00,
2013-02-24 00:16:00,12.4,4.2,29.93,SW,217,0.0,0.0,69,0.00,,---,0.00,VWS V14.00,2013-02-24 06:16:00,
2013-02-24 00:22:00,12.0,3.8,29.93,SW,217,0.0,0.0,69,0.00,,---,0.00,VWS V14.00,2013-02-24 06:22:00,
2013-02-24 00:27:00,11.7,3.5,29.93,SW,217,0.0,0.0,69,0.00,,---,0.00,VWS V14.00,2013-02-24 06:27:00,
2013-02-24 00:32:00,11.1,3.0,29.93,SW,216,0.0,0.0,69,0.00,,---,0.00,VWS V14.00,2013-02-24 06:32:00,
2013-02-24 00:37:00,11.3,3.1,29.93,SW,216,0.0,0.0,69,0.00,,---,0.00,VWS V14.00,2013-02-24 06:37:00,
2013-02-24 00:42:00,11.1,3.0,29.93,SW,216,0.0,0.0,69,0.00,,---,0.00,VWS V14.00,2013-02-24 06:42:00,
2013-02-24 00:47:00,10.9,2.8,29.93,SSW,202,3.1,3.1,69,0.00,,---,0.00,VWS V14.00,2013-02-24 06:47:00,
2013-02-24 00:52:00,10.8,2.6,29.93,SSW,201,0.0,0.0,69,0.00,,---,0.00,VWS V14.00,2013-02-24 06:52:00,
2013-02-24 00:57:00,10.6,2.4,29.93,SSW,201,0.0,0.0,69,0.00,,---,0.00,VWS V14.00,2013-02-24 06:57:00,
2013-02-24 01:02:00,10.2,2.1,29.93,SSW,202,0.0,0.0,69,0.00,,---,0.00,VWS V14.00,2013-02-24 07:02:00,
2013-02-24 01:07:00,10.2,2.1,29.93,SSW,201,0.0,0.0,69,0.00,,---,0.00,VWS V14.00,2013-02-24 07:07:00,
2013-02-24 01:12:00,9.9,1.7,29.93,SSW,201,0.0,0.0,69,0.00,,---,0.00,VWS V14.00,2013-02-24 07:12:00,
2013-02-24 01:17:00,9.5,1.4,29.93,SSW,201,0.0,0.0,69,0.00,,---,0.00,VWS V14.00,2013-02-24 07:17:00,
2013-02-24 01:22:00,9.5,1.4,29.93,SSW,202,0.0,0.0,69,0.00,,---,0.00,VWS V14.00,2013-02-24 07:22:00,
2013-02-24 01:27:00,9.5,1.4,29.96,SSW,202,0.0,0.0,69,0.00,,---,0.00,VWS V14.00,2013-02-24 07:27:00,
2013-02-24 01:32:00,9.3,1.2,29.96,SSW,202,0.0,0.0,69,0.00,,---,0.00,VWS V14.00,2013-02-24 07:32:00,
2013-02-24 01:37:00,9.0,0.9,29.96,SSW,201,0.0,0.0,69,0.00,,---,0.00,VWS V14.00,2013-02-24 07:37:00,
2013-02-24 01:42:00,8.8,0.7,29.96,SSW,201,0.0,0.0,69,0.00,,---,0.00,VWS V14.00,2013-02-24 07:42:00,
2013-02-24 01:47:00,8.6,0.5,29.96,SSW,201,0.0,0.0,69,0.00,,---,0.00,VWS V14.00,2013-02-24 07:47:00,
2013-02-24 01:52:00,8.2,0.2,29.96,SSW,202,0.0,0.0,69,0.00,,---,0.00,VWS V14.00,2013-02-24 07:52:00,
2013-02-24 01:57:00,7.9,-0.2,29.96,SSW,201,0.0,0.0,69,0.00,,---,0.00,VWS V14.00,2013-02-24 07:57:00,
2013-02-24 02:02:00,7.5,-0.5,29.96,SSW,201,0.0,0.0,69,0.00,,---,0.00,VWS V14.00,2013-02-24 08:02:00,
2013-02-24 02:07:00,7.2,-0.9,29.96,SSW,202,0.0,0.0,69,0.00,,---,0.00,VWS V14.00,2013-02-24 08:07:00,
2013-02-24 02:12:00,7.0,-1.0,29.96,SSW,201,0.0,0.0,69,0.00,,---,0.00,VWS V14.00,2013-02-24 08:12:00,
2013-02-24 02:17:00,6.8,-1.2,29.96,SSW,201,0.0,0.0,69,0.00,,---,0.00,VWS V14.00,2013-02-24 08:17:00,
2013-02-24 02:22:00,6.6,-1.4,29.96,SSW,201,0.0,0.0,69,0.00,,---,0.00,VWS V14.00,2013-02-24 08:22:00,
2013-02-24 02:28:00,6.4,-1.5,29.96,SSW,201,0.0,0.0,69,0.00,,---,0.00,VWS V14.00,2013-02-24 08:28:00,
2013-02-24 02:33:00,6.3,-1.7,29.96,SSW,202,0.0,0.0,69,0.00,,---,0.00,VWS V14.00,2013-02-24 08:33:00,
2013-02-24 02:38:00,6.1,-1.9,29.96,SSW,201,0.0,0.0,69,0.00,,---,0.00,VWS V14.00,2013-02-24 08:38:00,
2013-02-24 02:43:00,6.1,-1.9,29.96,SSW,201,0.0,0.0,69,0.00,,---,0.00,VWS V14.00,2013-02-24 08:43:00,
2013-02-24 02:48:00,5.9,-2.1,29.96,SSW,201,0.0,0.0,69,0.00,,---,0.00,VWS V14.00,2013-02-24 08:48:00,
2013-02-24 02:53:00,5.7,-2.2,29.96,SSW,201,0.0,0.0,69,0.00,,---,0.00,VWS V14.00,2013-02-24 08:53:00,
2013-02-24 02:58:00,5.5,-2.4,29.96,SSW,202,0.0,0.0,69,0.00,,---,0.00,VWS V14.00,2013-02-24 08:58:00,
2013-02-24 03:03:00,5.5,-2.4,29.96,SSW,201,0.0,0.0,69,0.00,,---,0.00,VWS V14.00,2013-02-24 09:03:00,
2013-02-24 03:08:00,5.7,-2.2,29.96,SSW,201,0.0,0.0,69,0.00,,---,0.00,VWS V14.00,2013-02-24 09:08:00,
2013-02-24 03:13:00,5.9,-2.1,29.96,SSW,201,0.0,0.0,69,0.00,,---,0.00,VWS V14.00,2013-02-24 09:13:00,
2013-02-24 03:18:00,5.9,-2.1,29.96,SSW,201,0.0,0.0,69,0.00,,---,0.00,VWS V14.00,2013-02-24 09:18:00,
2013-02-24 03:23:00,5.9,-2.1,29.96,SSW,201,0.0,0.0,69,0.00,,---,0.00,VWS V14.00,2013-02-24 09:23:00,
2013-02-24 03:28:00,5.9,-2.1,29.96,SSW,201,0.0,0.0,69,0.00,,---,0.00,VWS V14.00,2013-02-24 09:28:00,
2013-02-24 03:33:00,5.5,-2.4,29.96,SSW,201,0.0,0.0,69,0.00,,---,0.00,VWS V14.00,2013-02-24 09:33:00,
2013-02-24 03:38:00,5.4,-2.6,29.96,SSW,202,0.0,0.0,69,0.00,,---,0.00,VWS V14.00,2013-02-24 09:38:00,
2013-02-24 03:43:00,4.8,-3.1,29.96,SSW,201,0.0,0.0,69,0.00,,---,0.00,VWS V14.00,2013-02-24 09:43:00,
2013-02-24 03:48:00,4.5,-3.5,29.96,SSW,201,0.0,0.0,69,0.00,,---,0.00,VWS V14.00,2013-02-24 09:48:00,
2013-02-24 03:53:00,4.5,-3.5,29.96,SSW,201,0.0,0.0,69,0.00,,---,0.00,VWS V14.00,2013-02-24 09:53:00,
2013-02-24 03:58:00,4.6,-3.3,29.96,SSW,202,0.0,0.0,69,0.00,,---,0.00,VWS V14.00,2013-02-24 09:58:00,
2013-02-24 04:03:00,4.5,-3.5,29.96,SSW,202,0.0,0.0,69,0.00,,---,0.00,VWS V14.00,2013-02-24 10:03:00,
2013-02-24 04:08:00,4.1,-3.8,29.96,SSW,202,0.0,0.0,69,0.00,,---,0.00,VWS V14.00,2013-02-24 10:08:00,
2013-02-24 04:13:00,3.7,-4.1,29.96,SSW,201,0.0,0.0,69,0.00,,---,0.00,VWS V14.00,2013-02-24 10:13:00,
2013-02-24 04:18:00,3.6,-4.3,29.96,SSW,202,0.0,0.0,69,0.00,,---,0.00,VWS V14.00,2013-02-24 10:18:00,
2013-02-24 04:23:00,3.4,-4.5,29.96,SSW,201,0.0,0.0,69,0.00,,---,0.00,VWS V14.00,2013-02-24 10:23:00,
2013-02-24 04:28:00,3.2,-4.7,29.96,SSW,201,0.0,0.0,69,0.00,,---,0.00,VWS V14.00,2013-02-24 10:28:00,
2013-02-24 04:33:00,3.2,-4.7,29.96,SSW,201,0.0,0.0,69,0.00,,---,0.00,VWS V14.00,2013-02-24 10:33:00,
2013-02-24 04:38:00,3.2,-4.7,29.96,SSW,202,0.0,0.0,69,0.00,,---,0.00,VWS V14.00,2013-02-24 10:38:00,
2013-02-24 04:43:00,2.8,-5.0,29.96,SSW,201,0.0,0.0,69,0.00,,---,0.00,VWS V14.00,2013-02-24 10:43:00,
2013-02-24 04:48:00,2.8,-5.0,29.96,SSW,202,0.0,0.0,69,0.00,,---,0.00,VWS V14.00,2013-02-24 10:48:00,
2013-02-24 04:53:00,2.5,-5.3,29.96,SSW,201,0.0,0.0,69,0.00,,---,0.00,VWS V14.00,2013-02-24 10:53:00,
2013-02-24 04:58:00,2.5,-5.3,29.99,SSW,201,0.0,0.0,69,0.00,,---,0.00,VWS V14.00,2013-02-24 10:58:00,
2013-02-24 05:03:00,2.5,-5.3,29.99,SSW,201,0.0,0.0,69,0.00,,---,0.00,VWS V14.00,2013-02-24 11:03:00,
2013-02-24 05:09:00,2.5,-5.3,29.99,SSW,202,0.0,0.0,69,0.00,,---,0.00,VWS V14.00,2013-02-24 11:09:00,
2013-02-24 05:14:00,2.3,-5.5,29.99,SSW,202,0.0,0.0,69,0.00,,---,0.00,VWS V14.00,2013-02-24 11:14:00,
2013-02-24 05:19:00,2.5,-5.3,29.99,SSW,202,0.0,0.0,69,0.00,,---,0.00,VWS V14.00,2013-02-24 11:19:00,
2013-02-24 05:24:00,2.5,-5.3,29.99,SSW,201,0.0,0.0,69,0.00,,---,0.00,VWS V14.00,2013-02-24 11:24:00,
2013-02-24 05:29:00,2.3,-5.5,29.99,SSW,201,0.0,0.0,69,0.00,,---,0.00,VWS V14.00,2013-02-24 11:29:00,
2013-02-24 05:34:00,1.9,-5.9,29.99,SSW,201,0.0,0.0,69,0.00,,---,0.00,VWS V14.00,2013-02-24 11:34:00,
2013-02-24 05:39:00,1.8,-6.1,29.99,SSW,201,0.0,0.0,69,0.00,,---,0.00,VWS V14.00,2013-02-24 11:39:00,
2013-02-24 05:44:00,1.6,-6.2,29.99,SSW,201,0.0,0.0,69,0.00,,---,0.00,VWS V14.00,2013-02-24 11:44:00,
2013-02-24 05:49:00,1.8,-6.1,29.99,SSW,201,0.0,0.0,69,0.00,,---,0.00,VWS V14.00,2013-02-24 11:49:00,
2013-02-24 05:54:00,1.6,-6.2,29.99,SSW,201,0.0,0.0,69,0.00,,---,0.00,VWS V14.00,2013-02-24 11:54:00,
2013-02-24 05:59:00,1.2,-6.6,29.99,SSW,201,0.0,0.0,69,0.00,,---,0.00,VWS V14.00,2013-02-24 11:59:00,
2013-02-24 06:04:00,1.2,-6.6,29.99,SSW,201,0.0,0.0,69,0.00,,---,0.00,VWS V14.00,2013-02-24 12:04:00,
2013-02-24 06:09:00,1.2,-6.6,29.99,SSW,202,0.0,0.0,69,0.00,,---,0.00,VWS V14.00,2013-02-24 12:09:00,
2013-02-24 06:14:00,0.9,-6.9,29.99,SSW,202,0.0,0.0,69,0.00,,---,0.00,VWS V14.00,2013-02-24 12:14:00,
2013-02-24 06:19:00,0.7,-7.1,29.99,SSW,201,0.0,0.0,69,0.00,,---,0.00,VWS V14.00,2013-02-24 12:19:00,
2013-02-24 06:24:00,0.7,-7.1,29.99,SSW,201,0.0,0.0,69,0.00,,---,0.00,VWS V14.00,2013-02-24 12:24:00,
2013-02-24 06:29:00,0.5,-7.3,29.99,SSW,201,0.0,0.0,69,0.00,,---,0.00,VWS V14.00,2013-02-24 12:29:00,
2013-02-24 06:34:00,0.3,-7.4,29.99,SSW,201,0.0,0.0,69,0.00,,---,0.00,VWS V14.00,2013-02-24 12:34:00,
2013-02-24 06:39:00,0.3,-7.4,29.99,SSW,201,0.0,0.0,69,0.00,,---,0.00,VWS V14.00,2013-02-24 12:39:00,
2013-02-24 06:44:00,0.1,-7.6,29.99,SSW,201,0.0,0.0,69,0.00,,---,0.00,VWS V14.00,2013-02-24 12:44:00,
2013-02-24 06:49:00,0.0,-7.8,29.99,SSW,202,0.0,0.0,69,0.00,,---,0.00,VWS V14.00,2013-02-24 12:49:00,
2013-02-24 06:54:00,-0.2,-7.9,29.99,SSW,202,0.0,0.0,69,0.00,,---,0.00,VWS V14.00,2013-02-24 12:54:00,
2013-02-24 06:59:00,-0.2,-7.9,30.02,SSW,202,0.0,0.0,69,0.00,,---,0.00,VWS V14.00,2013-02-24 12:59:00,
2013-02-24 07:04:00,0.0,-7.8,30.02,SSW,202,0.0,0.0,69,0.00,,---,0.00,VWS V14.00,2013-02-24 13:04:00,
2013-02-24 07:09:00,0.1,-7.6,30.02,SSW,201,0.0,0.0,69,0.00,,---,0.00,VWS V14.00,2013-02-24 13:09:00,
2013-02-24 07:14:00,0.3,-7.4,30.02,SSW,201,0.0,0.0,69,0.00,,---,0.00,VWS V14.00,2013-02-24 13:14:00,
2013-02-24 07:19:00,0.7,-7.1,30.02,SSW,201,0.0,0.0,69,0.00,,---,0.00,VWS V14.00,2013-02-24 13:19:00,
2013-02-24 07:24:00,1.2,-6.6,30.02,SSW,202,0.0,0.0,69,0.00,,---,0.00,VWS V14.00,2013-02-24 13:24:00,
2013-02-24 07:29:00,1.6,-6.2,30.02,SSW,201,0.0,0.0,69,0.00,,---,0.00,VWS V14.00,2013-02-24 13:29:00,
2013-02-24 07:35:00,2.1,-5.7,30.02,SSW,201,0.0,0.0,69,0.00,,---,0.00,VWS V14.00,2013-02-24 13:35:00,
2013-02-24 07:40:00,3.6,-4.3,30.02,SSW,202,0.0,0.0,69,0.00,,---,0.00,VWS V14.00,2013-02-24 13:40:00,
2013-02-24 07:45:00,5.0,-2.9,30.02,SSW,201,0.0,0.0,69,0.00,,---,0.00,VWS V14.00,2013-02-24 13:45:00,
2013-02-24 07:50:00,6.3,-1.7,30.02,SSW,201,0.0,0.0,69,0.00,,---,0.00,VWS V14.00,2013-02-24 13:50:00,
2013-02-24 07:55:00,7.5,-0.5,30.02,SSW,200,0.0,0.0,69,0.00,,---,0.00,VWS V14.00,2013-02-24 13:55:00,
2013-02-24 08:00:00,8.6,0.5,30.02,SSW,202,0.0,0.0,69,0.00,,---,0.00,VWS V14.00,2013-02-24 14:00:00,
2013-02-24 08:05:00,9.5,1.4,30.02,SSW,201,0.0,0.0,69,0.00,,---,0.00,VWS V14.00,2013-02-24 14:05:00,
2013-02-24 08:10:00,10.9,2.8,30.02,SSW,202,0.0,0.0,69,0.00,,---,0.00,VWS V14.00,2013-02-24 14:10:00,
2013-02-24 08:15:00,12.2,4.0,30.02,SSW,201,0.0,0.0,69,0.00,,---,0.00,VWS V14.00,2013-02-24 14:15:00,
2013-02-24 08:20:00,13.3,5.0,30.02,SSW,201,0.0,0.0,69,0.00,,---,0.00,VWS V14.00,2013-02-24 14:20:00,
2013-02-24 08:25:00,14.5,8.9,30.02,SSW,202,0.0,0.0,78,0.00,,---,0.00,VWS V14.00,2013-02-24 14:25:00,
2013-02-24 08:30:00,15.8,10.5,30.02,SSW,202,0.0,0.0,79,0.00,,---,0.00,VWS V14.00,2013-02-24 14:30:00,
2013-02-24 08:35:00,16.7,11.3,30.02,SSW,203,0.0,0.0,79,0.00,,---,0.00,VWS V14.00,2013-02-24 14:35:00,
2013-02-24 08:40:00,17.1,11.4,30.02,NW,309,2.7,3.1,78,0.00,,---,0.00,VWS V14.00,2013-02-24 14:40:00,
2013-02-24 08:45:00,17.1,11.4,30.02,NW,309,2.2,2.7,78,0.00,,---,0.00,VWS V14.00,2013-02-24 14:45:00,
2013-02-24 08:50:00,17.2,11.6,30.02,NW,309,0.0,0.0,78,0.00,,---,0.00,VWS V14.00,2013-02-24 14:50:00,
2013-02-24 08:55:00,18.3,12.6,30.02,NW,310,0.0,0.0,78,0.00,,---,0.00,VWS V14.00,2013-02-24 14:55:00,
2013-02-24 09:00:00,19.2,13.5,30.02,NW,310,0.0,0.0,78,0.00,,---,0.00,VWS V14.00,2013-02-24 15:00:00,
2013-02-24 09:05:00,20.5,14.7,30.02,NW,309,0.0,0.0,78,0.00,,---,0.00,VWS V14.00,2013-02-24 15:05:00,
2013-02-24 09:10:00,21.7,15.9,30.02,NW,309,0.0,0.0,78,0.00,,---,0.00,VWS V14.00,2013-02-24 15:10:00,
2013-02-24 09:15:00,22.3,16.5,30.05,NW,309,0.0,0.0,78,0.00,,---,0.00,VWS V14.00,2013-02-24 15:15:00,
2013-02-24 09:20:00,22.8,17.0,30.05,NW,309,0.0,0.0,78,0.00,,---,0.00,VWS V14.00,2013-02-24 15:20:00,
2013-02-24 09:25:00,23.7,17.6,30.05,NW,309,0.0,0.0,77,0.00,,---,0.00,VWS V14.00,2013-02-24 15:25:00,
2013-02-24 09:30:00,24.3,17.5,30.05,NW,309,0.0,0.0,75,0.00,,---,0.00,VWS V14.00,2013-02-24 15:30:00,
2013-02-24 09:35:00,24.6,17.5,30.05,NW,309,3.1,3.1,74,0.00,,---,0.00,VWS V14.00,2013-02-24 15:35:00,
2013-02-24 09:40:00,24.8,15.1,30.05,NW,309,2.7,2.7,66,0.00,,---,0.00,VWS V14.00,2013-02-24 15:40:00,
2013-02-24 09:45:00,25.3,13.4,30.05,NW,316,2.7,2.7,60,0.00,,---,0.00,VWS V14.00,2013-02-24 15:45:00,
2013-02-24 09:50:00,26.2,13.9,30.05,NW,316,2.7,2.7,59,0.00,,---,0.00,VWS V14.00,2013-02-24 15:50:00,
2013-02-24 09:55:00,27.3,14.1,30.05,NW,316,2.7,3.1,57,0.00,,---,0.00,VWS V14.00,2013-02-24 15:55:00,
2013-02-24 10:01:00,28.2,13.3,30.05,NW,316,3.1,3.1,53,0.00,,---,0.00,VWS V14.00,2013-02-24 16:01:00,
2013-02-24 10:06:00,28.4,13.0,30.05,NW,318,2.7,3.1,52,0.00,,---,0.00,VWS V14.00,2013-02-24 16:06:00,
2013-02-24 10:11:00,28.2,12.9,30.05,NW,318,2.2,2.7,52,0.00,,---,0.00,VWS V14.00,2013-02-24 16:11:00,
2013-02-24 10:16:00,28.8,13.4,30.05,NW,318,2.7,2.7,52,0.00,,---,0.00,VWS V14.00,2013-02-24 16:16:00,
2013-02-24 10:21:00,29.1,13.7,30.05,NNW,340,2.7,3.1,52,0.00,,---,0.00,VWS V14.00,2013-02-24 16:21:00,
2013-02-24 10:26:00,29.5,13.6,30.05,NNW,341,0.0,2.7,51,0.00,,---,0.00,VWS V14.00,2013-02-24 16:26:00,
2013-02-24 10:31:00,30.2,14.3,30.05,NNW,341,0.0,0.0,51,0.00,,---,0.00,VWS V14.00,2013-02-24 16:31:00,
2013-02-24 10:36:00,31.8,15.3,30.05,NNW,341,0.0,0.0,50,0.00,,---,0.00,VWS V14.00,2013-02-24 16:36:00,
2013-02-24 10:41:00,33.4,16.8,30.05,NNW,340,0.0,0.0,50,0.00,,---,0.00,VWS V14.00,2013-02-24 16:41:00,
2013-02-24 10:46:00,35.6,18.3,30.05,NNW,341,0.0,0.0,49,0.00,,---,0.00,VWS V14.00,2013-02-24 16:46:00,
2013-02-24 10:51:00,36.9,17.0,30.05,NNW,338,3.1,3.1,44,0.00,,---,0.00,VWS V14.00,2013-02-24 16:51:00,
2013-02-24 10:56:00,37.4,16.4,30.05,NNW,338,2.7,2.7,42,0.00,,---,0.00,VWS V14.00,2013-02-24 16:56:00,
2013-02-24 11:01:00,37.2,15.7,30.05,NNW,333,3.6,3.6,41,0.00,,---,0.00,VWS V14.00,2013-02-24 17:01:00,
2013-02-24 11:06:00,37.4,15.9,30.05,North,353,3.1,4.0,41,0.00,,---,0.00,VWS V14.00,2013-02-24 17:06:00,
2013-02-24 11:11:00,37.4,15.9,30.05,NNW,341,3.6,4.0,41,0.00,,---,0.00,VWS V14.00,2013-02-24 17:11:00,
2013-02-24 11:16:00,37.4,15.3,30.05,NNW,341,2.7,3.1,40,0.00,,---,0.00,VWS V14.00,2013-02-24 17:16:00,
2013-02-24 11:21:00,38.1,15.9,30.05,NNW,341,3.1,3.6,40,0.00,,---,0.00,VWS V14.00,2013-02-24 17:21:00,
2013-02-24 11:26:00,38.8,16.6,30.05,NNW,341,3.1,4.0,40,0.00,,---,0.00,VWS V14.00,2013-02-24 17:26:00,
2013-02-24 11:31:00,38.5,15.7,30.05,NNW,341,4.0,4.0,39,0.00,,---,0.00,VWS V14.00,2013-02-24 17:31:00,
2013-02-24 11:36:00,37.9,15.8,30.05,NNW,341,3.1,3.6,40,0.00,,---,0.00,VWS V14.00,2013-02-24 17:36:00,
2013-02-24 11:41:00,39.9,17.6,30.05,NNW,341,0.0,0.0,40,0.00,,---,0.00,VWS V14.00,2013-02-24 17:41:00,
2013-02-24 11:46:00,42.1,18.9,30.05,NNW,341,0.0,0.0,39,0.00,,---,0.00,VWS V14.00,2013-02-24 17:46:00,
2013-02-24 11:51:00,42.1,18.3,30.05,NNW,341,2.7,3.1,38,0.00,,---,0.00,VWS V14.00,2013-02-24 17:51:00,
2013-02-24 11:56:00,42.1,18.3,30.05,NNW,341,2.2,2.2,38,0.00,,---,0.00,VWS V14.00,2013-02-24 17:56:00,
2013-02-24 12:01:00,44.6,20.6,30.05,NNW,341,0.0,2.7,38,0.00,,---,0.00,VWS V14.00,2013-02-24 18:01:00,
2013-02-24 12:06:00,46.6,21.7,30.05,SSE,150,4.9,4.9,37,0.00,,---,0.00,VWS V14.00,2013-02-24 18:06:00,
2013-02-24 12:11:00,46.8,20.6,30.05,SW,219,5.8,6.3,35,0.00,,---,0.00,VWS V14.00,2013-02-24 18:11:00,
2013-02-24 12:16:00,46.4,18.9,30.05,SW,234,5.4,5.4,33,0.00,,---,0.00,VWS V14.00,2013-02-24 18:16:00,
2013-02-24 12:21:00,46.6,19.0,30.05,SW,235,4.0,6.3,33,0.00,,---,0.00,VWS V14.00,2013-02-24 18:21:00,
2013-02-24 12:27:00,48.2,20.5,30.05,SSE,163,3.6,4.0,33,0.00,,---,0.00,VWS V14.00,2013-02-24 18:27:00,
2013-02-24 12:32:00,50.0,20.6,30.05,SW,226,2.7,5.4,31,0.00,,---,0.00,VWS V14.00,2013-02-24 18:32:00,
2013-02-24 12:37:00,51.4,21.1,30.05,WSW,251,2.7,3.6,30,0.00,,---,0.00,VWS V14.00,2013-02-24 18:37:00,
2013-02-24 12:42:00,50.9,19.8,30.05,SSW,195,4.5,4.5,29,0.00,,---,0.00,VWS V14.00,2013-02-24 18:42:00,
2013-02-24 12:47:00,51.3,20.9,30.05,WSW,254,5.4,5.8,30,0.00,,---,0.00,VWS V14.00,2013-02-24 18:47:00,
2013-02-24 12:52:00,50.0,19.0,30.05,SW,226,0.0,4.0,29,0.00,,---,0.00,VWS V14.00,2013-02-24 18:52:00,
2013-02-24 12:57:00,47.8,17.1,30.05,SW,222,2.7,3.6,29,0.00,,---,0.00,VWS V14.00,2013-02-24 18:57:00,
2013-02-24 13:02:00,47.5,17.6,30.05,SW,221,3.1,3.1,30,0.00,,---,0.00,VWS V14.00,2013-02-24 19:02:00,
2013-02-24 13:07:00,47.1,17.3,30.05,SSW,213,3.6,4.0,30,0.04,,---,0.04,VWS V14.00,2013-02-24 19:07:00,
2013-02-24 13:12:00,46.9,17.1,30.05,WSW,246,4.0,4.0,30,0.04,,---,0.04,VWS V14.00,2013-02-24 19:12:00,
2013-02-24 13:17:00,47.7,17.8,30.05,SSW,203,3.1,4.0,30,0.04,,---,0.04,VWS V14.00,2013-02-24 19:17:00,
2013-02-24 13:22:00,48.7,18.7,30.05,SSW,209,4.0,4.9,30,0.04,,---,0.04,VWS V14.00,2013-02-24 19:22:00,
2013-02-24 13:27:00,48.9,18.9,30.05,NNW,336,3.1,3.6,30,0.04,,---,0.04,VWS V14.00,2013-02-24 19:27:00,
2013-02-24 13:32:00,48.0,17.3,30.05,NNE,30,3.6,3.6,29,0.04,,---,0.04,VWS V14.00,2013-02-24 19:32:00,
2013-02-24 13:37:00,47.3,17.5,30.05,NNE,12,4.0,5.8,30,0.04,,---,0.04,VWS V14.00,2013-02-24 19:37:00,
2013-02-24 13:42:00,46.4,15.9,30.05,NNW,348,4.0,4.0,29,0.04,,---,0.04,VWS V14.00,2013-02-24 19:42:00,
2013-02-24 13:47:00,44.4,15.7,30.05,North,350,0.0,3.6,31,0.04,,---,0.04,VWS V14.00,2013-02-24 19:47:00,
2013-02-24 13:52:00,44.6,15.1,30.05,NNE,23,4.9,4.9,30,0.04,,---,0.04,VWS V14.00,2013-02-24 19:52:00,
2013-02-24 13:57:00,42.4,14.7,30.05,North,0,3.1,3.6,32,0.04,,---,0.04,VWS V14.00,2013-02-24 19:57:00,
2013-02-24 14:02:00,42.3,14.5,30.05,SSW,200,0.0,3.6,32,0.04,,---,0.04,VWS V14.00,2013-02-24 20:02:00,
2013-02-24 14:07:00,41.4,13.7,30.05,SE,134,2.7,5.4,32,0.00,,---,0.04,VWS V14.00,2013-02-24 20:07:00,
2013-02-24 14:12:00,42.3,15.2,30.05,South,190,0.0,4.0,33,0.00,,---,0.04,VWS V14.00,2013-02-24 20:12:00,
2013-02-24 14:17:00,43.9,16.7,30.05,ESE,111,2.2,5.8,33,0.00,,---,0.04,VWS V14.00,2013-02-24 20:17:00,
2013-02-24 14:22:00,45.0,16.9,30.05,SSW,207,5.4,5.4,32,0.00,,---,0.04,VWS V14.00,2013-02-24 20:22:00,
2013-02-24 14:27:00,45.3,16.5,30.02,SW,227,5.4,5.4,31,0.00,,---,0.04,VWS V14.00,2013-02-24 20:27:00,
2013-02-24 14:32:00,46.2,17.3,30.02,East,94,5.4,5.4,31,0.00,,---,0.04,VWS V14.00,2013-02-24 20:32:00,
2013-02-24 14:37:00,46.6,17.6,30.02,SE,138,3.1,5.4,31,0.00,,---,0.04,VWS V14.00,2013-02-24 20:37:00,
2013-02-24 14:42:00,46.4,16.7,30.02,SSE,168,3.1,3.1,30,0.00,,---,0.04,VWS V14.00,2013-02-24 20:42:00,
2013-02-24 14:47:00,46.4,17.4,30.02,SSE,155,3.1,3.1,31,0.00,,---,0.04,VWS V14.00,2013-02-24 20:47:00,
2013-02-24 14:53:00,46.4,16.7,30.02,ENE,60,3.1,3.6,30,0.00,,---,0.04,VWS V14.00,2013-02-24 20:53:00,
2013-02-24 14:58:00,44.1,15.4,30.02,ESE,105,2.7,4.0,31,0.00,,---,0.04,VWS V14.00,2013-02-24 20:58:00,
2013-02-24 15:03:00,42.1,13.6,30.02,ENE,78,2.7,6.3,31,0.00,,---,0.04,VWS V14.00,2013-02-24 21:03:00,
2013-02-24 15:08:00,41.7,14.1,30.02,SSE,147,3.6,4.9,32,0.00,,---,0.04,VWS V14.00,2013-02-24 21:08:00,
2013-02-24 15:13:00,42.1,14.4,30.02,SSE,148,4.0,5.4,32,0.00,,---,0.04,VWS V14.00,2013-02-24 21:13:00,
2013-02-24 15:18:00,42.1,14.4,30.02,East,88,3.6,4.9,32,0.00,,---,0.04,VWS V14.00,2013-02-24 21:18:00,
2013-02-24 15:23:00,40.3,13.5,30.02,East,97,3.6,5.8,33,0.00,,---,0.04,VWS V14.00,2013-02-24 21:23:00,
2013-02-24 15:28:00,39.9,13.2,30.02,ESE,102,3.6,4.9,33,0.00,,---,0.04,VWS V14.00,2013-02-24 21:28:00,
2013-02-24 15:33:00,39.6,12.9,30.02,SE,124,4.0,4.9,33,0.00,,---,0.04,VWS V14.00,2013-02-24 21:33:00,
2013-02-24 15:38:00,39.4,13.4,30.02,SE,127,2.7,4.0,34,0.00,,---,0.04,VWS V14.00,2013-02-24 21:38:00,
2013-02-24 15:43:00,39.7,13.7,30.02,ESE,102,0.0,3.6,34,0.00,,---,0.04,VWS V14.00,2013-02-24 21:43:00,
2013-02-24 15:48:00,40.3,14.8,30.02,ESE,122,2.2,2.7,35,0.00,,---,0.04,VWS V14.00,2013-02-24 21:48:00,
2013-02-24 15:53:00,40.6,15.1,30.02,ESE,121,0.0,0.0,35,0.00,,---,0.04,VWS V14.00,2013-02-24 21:53:00,
2013-02-24 15:58:00,42.1,16.4,30.02,SW,235,2.7,2.7,35,0.00,,---,0.04,VWS V14.00,2013-02-24 21:58:00,
2013-02-24 16:03:00,42.1,15.1,30.02,NW,315,3.1,3.6,33,0.00,,---,0.04,VWS V14.00,2013-02-24 22:03:00,
2013-02-24 16:08:00,40.8,14.6,30.02,NW,323,2.7,3.1,34,0.00,,---,0.04,VWS V14.00,2013-02-24 22:08:00,
2013-02-24 16:13:00,39.2,13.2,30.02,NNW,344,4.5,4.5,34,0.00,,---,0.04,VWS V14.00,2013-02-24 22:13:00,
2013-02-24 16:18:00,37.6,12.4,30.02,North,0,2.7,4.0,35,0.00,,---,0.04,VWS V14.00,2013-02-24 22:18:00,
2013-02-24 16:23:00,36.7,12.3,30.02,North,357,2.2,2.2,36,0.00,,---,0.04,VWS V14.00,2013-02-24 22:23:00,
2013-02-24 16:28:00,36.5,12.7,30.02,North,0,0.0,0.0,37,0.00,,---,0.04,VWS V14.00,2013-02-24 22:28:00,
2013-02-24 16:33:00,37.0,14.4,30.02,North,353,0.0,0.0,39,0.00,,---,0.04,VWS V14.00,2013-02-24 22:33:00,
2013-02-24 16:38:00,37.6,14.9,30.02,North,353,0.0,0.0,39,0.00,,---,0.04,VWS V14.00,2013-02-24 22:38:00,
2013-02-24 16:43:00,37.4,14.7,30.02,North,353,0.0,0.0,39,0.00,,---,0.04,VWS V14.00,2013-02-24 22:43:00,
2013-02-24 16:48:00,36.7,14.1,30.02,North,353,0.0,0.0,39,0.00,,---,0.04,VWS V14.00,2013-02-24 22:48:00,
2013-02-24 16:53:00,36.1,13.6,30.02,North,0,2.7,2.7,39,0.00,,---,0.04,VWS V14.00,2013-02-24 22:53:00,
2013-02-24 16:58:00,35.8,13.3,30.02,North,0,2.7,3.6,39,0.00,,---,0.04,VWS V14.00,2013-02-24 22:58:00,
2013-02-24 17:03:00,35.2,13.4,30.02,NNW,337,2.7,3.1,40,0.00,,---,0.04,VWS V14.00,2013-02-24 23:03:00,
2013-02-24 17:08:00,34.7,12.9,30.02,North,0,3.6,3.6,40,0.00,,---,0.04,VWS V14.00,2013-02-24 23:08:00,
2013-02-24 17:13:00,34.0,12.8,30.02,NNW,339,3.6,3.6,41,0.00,,---,0.04,VWS V14.00,2013-02-24 23:13:00,
2013-02-24 17:18:00,33.3,12.7,30.02,NNW,332,3.1,4.0,42,0.00,,---,0.04,VWS V14.00,2013-02-24 23:18:00,
2013-02-24 17:23:00,32.5,12.5,30.02,NW,314,3.6,3.6,43,0.00,,---,0.04,VWS V14.00,2013-02-24 23:23:00,
2013-02-24 17:28:00,31.8,12.4,30.02,NNW,332,3.1,3.6,44,0.00,,---,0.04,VWS V14.00,2013-02-24 23:28:00,
2013-02-24 17:33:00,30.9,11.6,30.02,NNW,338,4.9,4.9,44,0.00,,---,0.04,VWS V14.00,2013-02-24 23:33:00,
2013-02-24 17:39:00,30.2,12.9,30.02,NNW,335,4.0,4.9,48,0.00,,---,0.04,VWS V14.00,2013-02-24 23:39:00,
2013-02-24 17:44:00,29.8,13.0,30.02,NNW,337,3.6,3.6,49,0.00,,---,0.04,VWS V14.00,2013-02-24 23:44:00,
2013-02-24 17:49:00,29.3,12.1,30.02,NNW,332,2.7,3.1,48,0.00,,---,0.04,VWS V14.00,2013-02-24 23:49:00,
2013-02-24 17:54:00,28.6,11.4,30.02,NNW,331,2.2,2.7,48,0.00,,---,0.04,VWS V14.00,2013-02-24 23:54:00,
2013-02-24 17:59:00,27.9,10.7,30.02,NNW,332,0.0,2.2,48,0.00,,---,0.04,VWS V14.00,2013-02-24 23:59:00,
2013-02-24 18:04:00,27.3,10.2,30.02,NNW,332,2.2,2.7,48,0.00,,---,0.04,VWS V14.00,2013-02-25 00:04:00,
2013-02-24 18:09:00,26.8,9.7,30.02,NNW,332,0.0,0.0,48,0.00,,---,0.04,VWS V14.00,2013-02-25 00:09:00,
2013-02-24 18:14:00,26.1,9.1,30.02,NNW,332,0.0,0.0,48,0.00,,---,0.04,VWS V14.00,2013-02-25 00:14:00,
2013-02-24 18:19:00,25.7,9.2,30.02,NNW,332,0.0,2.2,49,0.00,,---,0.04,VWS V14.00,2013-02-25 00:19:00,
2013-02-24 18:24:00,25.3,8.9,30.02,NNW,332,0.0,2.2,49,0.00,,---,0.04,VWS V14.00,2013-02-25 00:24:00,
2013-02-24 18:29:00,25.0,8.5,30.05,NNW,332,0.0,0.0,49,0.00,,---,0.04,VWS V14.00,2013-02-25 00:29:00,
2013-02-24 18:34:00,24.3,8.3,30.05,NNW,332,0.0,0.0,50,0.00,,---,0.04,VWS V14.00,2013-02-25 00:34:00,
2013-02-24 18:39:00,23.5,7.7,30.05,NNW,332,0.0,0.0,50,0.00,,---,0.04,VWS V14.00,2013-02-25 00:39:00,
2013-02-24 18:44:00,23.0,7.6,30.05,NNW,332,0.0,0.0,51,0.00,,---,0.04,VWS V14.00,2013-02-25 00:44:00,
2013-02-24 18:49:00,22.5,7.1,30.05,NNW,327,2.7,3.1,51,0.00,,---,0.04,VWS V14.00,2013-02-25 00:49:00,
2013-02-24 18:54:00,22.1,7.2,30.05,NNW,327,0.0,2.7,52,0.00,,---,0.04,VWS V14.00,2013-02-25 00:54:00,
2013-02-24 18:59:00,21.9,7.0,30.05,NNW,327,2.7,2.7,52,0.00,,---,0.04,VWS V14.00,2013-02-25 00:59:00,
2013-02-24 19:05:00,21.7,7.3,30.05,NNW,327,0.0,0.0,53,0.00,,---,0.04,VWS V14.00,2013-02-25 01:05:00,
2013-02-24 19:10:00,21.4,6.9,30.05,NNW,327,0.0,0.0,53,0.00,,---,0.04,VWS V14.00,2013-02-25 01:10:00,
2013-02-24 19:15:00,20.8,6.4,30.05,NNW,327,0.0,0.0,53,0.00,,---,0.04,VWS V14.00,2013-02-25 01:15:00,
2013-02-24 19:20:00,20.7,6.7,30.05,NNW,327,0.0,0.0,54,0.00,,---,0.04,VWS V14.00,2013-02-25 01:20:00,
2013-02-24 19:25:00,20.3,6.3,30.05,NNW,327,0.0,0.0,54,0.00,,---,0.04,VWS V14.00,2013-02-25 01:25:00,
2013-02-24 19:30:00,19.9,6.0,30.05,NNW,327,0.0,0.0,54,0.00,,---,0.04,VWS V14.00,2013-02-25 01:30:00,
2013-02-24 19:35:00,19.6,5.7,30.05,NNW,327,0.0,0.0,54,0.00,,---,0.04,VWS V14.00,2013-02-25 01:35:00,
2013-02-24 19:40:00,19.2,5.7,30.05,NNW,327,0.0,0.0,55,0.00,,---,0.04,VWS V14.00,2013-02-25 01:40:00,
2013-02-24 19:45:00,19.0,5.9,30.05,NNW,327,0.0,0.0,56,0.00,,---,0.04,VWS V14.00,2013-02-25 01:45:00,
2013-02-24 19:50:00,19.0,5.9,30.05,NNW,327,0.0,0.0,56,0.00,,---,0.04,VWS V14.00,2013-02-25 01:50:00,
2013-02-24 19:55:00,18.7,5.6,30.05,NNW,327,0.0,0.0,56,0.00,,---,0.04,VWS V14.00,2013-02-25 01:55:00,
2013-02-24 20:00:00,18.3,5.3,30.05,NNW,327,0.0,0.0,56,0.00,,---,0.04,VWS V14.00,2013-02-25 02:00:00,
2013-02-24 20:05:00,18.1,5.5,30.05,NNW,327,0.0,0.0,57,0.00,,---,0.04,VWS V14.00,2013-02-25 02:05:00,
2013-02-24 20:10:00,17.6,5.0,30.05,NNW,327,0.0,0.0,57,0.00,,---,0.04,VWS V14.00,2013-02-25 02:10:00,
2013-02-24 20:15:00,17.4,5.2,30.05,NNW,327,0.0,0.0,58,0.00,,---,0.04,VWS V14.00,2013-02-25 02:15:00,
2013-02-24 20:20:00,17.1,4.8,30.05,NNW,327,0.0,0.0,58,0.00,,---,0.04,VWS V14.00,2013-02-25 02:20:00,
2013-02-24 20:25:00,16.9,5.0,30.05,NNW,327,0.0,0.0,59,0.00,,---,0.04,VWS V14.00,2013-02-25 02:25:00,
2013-02-24 20:30:00,16.5,4.7,30.05,NNW,327,0.0,0.0,59,0.00,,---,0.04,VWS V14.00,2013-02-25 02:30:00,
2013-02-24 20:35:00,16.2,4.4,30.05,NNW,327,0.0,0.0,59,0.00,,---,0.04,VWS V14.00,2013-02-25 02:35:00,
2013-02-24 20:40:00,15.8,4.4,30.05,NNW,327,0.0,0.0,60,0.00,,---,0.04,VWS V14.00,2013-02-25 02:40:00,
2013-02-24 20:45:00,15.6,4.2,30.05,NNW,327,0.0,0.0,60,0.00,,---,0.04,VWS V14.00,2013-02-25 02:45:00,
2013-02-24 20:50:00,15.3,3.9,30.05,NNW,327,0.0,0.0,60,0.00,,---,0.04,VWS V14.00,2013-02-25 02:50:00,
2013-02-24 20:55:00,15.1,3.7,30.05,NNW,327,0.0,0.0,60,0.00,,---,0.04,VWS V14.00,2013-02-25 02:55:00,
2013-02-24 21:00:00,14.9,3.5,30.05,NNW,327,0.0,0.0,60,0.00,,---,0.04,VWS V14.00,2013-02-25 03:00:00,
2013-02-24 21:05:00,14.5,3.2,30.05,NNW,327,0.0,0.0,60,0.00,,---,0.04,VWS V14.00,2013-02-25 03:05:00,
2013-02-24 21:10:00,14.2,2.9,30.05,NNW,327,0.0,0.0,60,0.00,,---,0.04,VWS V14.00,2013-02-25 03:10:00,
2013-02-24 21:15:00,13.8,2.9,30.05,NNW,327,0.0,0.0,61,0.00,,---,0.04,VWS V14.00,2013-02-25 03:15:00,
2013-02-24 21:20:00,13.6,2.7,30.05,NNW,327,0.0,0.0,61,0.00,,---,0.04,VWS V14.00,2013-02-25 03:20:00,
2013-02-24 21:25:00,13.5,2.5,30.05,NNW,327,0.0,0.0,61,0.00,,---,0.04,VWS V14.00,2013-02-25 03:25:00,
2013-02-24 21:30:00,13.5,2.5,30.05,NNW,327,0.0,0.0,61,0.00,,---,0.04,VWS V14.00,2013-02-25 03:30:00,
2013-02-24 21:36:00,13.5,2.5,30.05,NNW,327,0.0,0.0,61,0.00,,---,0.04,VWS V14.00,2013-02-25 03:36:00,
2013-02-24 21:41:00,13.3,2.4,30.05,NNW,327,0.0,0.0,61,0.00,,---,0.04,VWS V14.00,2013-02-25 03:41:00,
2013-02-24 21:46:00,13.3,2.4,30.05,NNW,327,0.0,0.0,61,0.00,,---,0.04,VWS V14.00,2013-02-25 03:46:00,
2013-02-24 21:51:00,13.3,2.4,30.05,NNW,327,0.0,0.0,61,0.00,,---,0.04,VWS V14.00,2013-02-25 03:51:00,
2013-02-24 21:56:00,13.5,2.5,30.05,NNW,327,0.0,0.0,61,0.00,,---,0.04,VWS V14.00,2013-02-25 03:56:00,
2013-02-24 22:01:00,12.9,2.0,30.05,NNW,327,0.0,0.0,61,0.00,,---,0.04,VWS V14.00,2013-02-25 04:01:00,
2013-02-24 22:06:00,12.7,1.9,30.05,NNW,327,0.0,0.0,61,0.00,,---,0.04,VWS V14.00,2013-02-25 04:06:00,
2013-02-24 22:11:00,12.4,1.5,30.05,NNW,327,0.0,0.0,61,0.00,,---,0.04,VWS V14.00,2013-02-25 04:11:00,
2013-02-24 22:16:00,11.8,1.0,30.05,NNW,327,0.0,0.0,61,0.00,,---,0.04,VWS V14.00,2013-02-25 04:16:00,
2013-02-24 22:21:00,11.7,0.8,30.05,NNW,327,0.0,0.0,61,0.00,,---,0.04,VWS V14.00,2013-02-25 04:21:00,
2013-02-24 22:26:00,11.7,0.8,30.05,NNW,327,0.0,0.0,61,0.00,,---,0.04,VWS V14.00,2013-02-25 04:26:00,
2013-02-24 22:31:00,11.3,0.5,30.08,NNW,327,0.0,0.0,61,0.00,,---,0.04,VWS V14.00,2013-02-25 04:31:00,
2013-02-24 22:36:00,10.9,0.1,30.08,NNW,327,0.0,0.0,61,0.00,,---,0.04,VWS V14.00,2013-02-25 04:36:00,
2013-02-24 22:41:00,10.8,0.0,30.08,NNW,327,0.0,0.0,61,0.00,,---,0.04,VWS V14.00,2013-02-25 04:41:00,
2013-02-24 22:46:00,10.2,-0.5,30.08,NNW,327,0.0,0.0,61,0.00,,---,0.04,VWS V14.00,2013-02-25 04:46:00,
2013-02-24 22:51:00,10.0,-0.7,30.08,NNW,327,0.0,0.0,61,0.00,,---,0.04,VWS V14.00,2013-02-25 04:51:00,
2013-02-24 22:56:00,10.2,-0.5,30.08,NNW,327,0.0,0.0,61,0.00,,---,0.04,VWS V14.00,2013-02-25 04:56:00,
2013-02-24 23:00:00,10.2,-0.5,30.08,NNW,327,0.0,0.0,61,0.00,,---,0.04,VWS V14.00,2013-02-25 05:00:00,
2013-02-24 23:05:00,10.4,-0.4,30.08,NNW,327,0.0,0.0,61,0.00,,---,0.04,VWS V14.00,2013-02-25 05:05:00,
2013-02-24 23:10:00,10.4,-0.4,30.08,NNW,327,0.0,0.0,61,0.00,,---,0.04,VWS V14.00,2013-02-25 05:10:00,
2013-02-24 23:15:00,10.2,-0.5,30.08,NNW,327,0.0,0.0,61,0.00,,---,0.04,VWS V14.00,2013-02-25 05:15:00,
2013-02-24 23:20:00,9.9,-0.9,30.08,NNW,327,0.0,0.0,61,0.00,,---,0.04,VWS V14.00,2013-02-25 05:20:00,
2013-02-24 23:25:00,9.5,-1.2,30.08,NNW,327,0.0,0.0,61,0.00,,---,0.04,VWS V14.00,2013-02-25 05:25:00,
2013-02-24 23:30:00,9.5,-1.2,30.08,NNW,327,0.0,0.0,61,0.00,,---,0.04,VWS V14.00,2013-02-25 05:30:00,
2013-02-24 23:35:00,9.3,-1.4,30.08,NNW,327,0.0,0.0,61,0.00,,---,0.04,VWS V14.00,2013-02-25 05:35:00,
2013-02-24 23:40:00,9.3,-1.4,30.08,NNW,327,0.0,0.0,61,0.00,,---,0.04,VWS V14.00,2013-02-25 05:40:00,
2013-02-24 23:45:00,9.1,-1.6,30.08,NNW,327,0.0,0.0,61,0.00,,---,0.04,VWS V14.00,2013-02-25 05:45:00,
2013-02-24 23:50:00,9.0,-1.7,30.08,NNW,327,0.0,0.0,61,0.00,,---,0.04,VWS V14.00,2013-02-25 05:50:00,
2013-02-24 23:55:00,8.8,-1.9,30.08,NNW,327,0.0,0.0,61,0.00,,---,0.04,VWS V14.00,2013-02-25 05:55:00,